{"data":{"norad_id":28058,"intl_designator":"2003-049B","name":"CHUANGXIN 1 (CX-1)","alt_names":[],"object_type":"PAYLOAD","status":"ACTIVE","operator":null,"country":"PRC","launch_date":"2003-10-21","launch_site_code":"TAISC","launch_vehicle":null,"mission":null,"orbit_class":"UNKNOWN","rcs_meters":0.526,"size_class":null,"mass_kg":null,"dimensions":null,"purposes":[],"wikipedia_slug":null,"has_3d_model":false,"image_url":null,"decayed_at":null,"tle_current":{"epoch":"2026-05-25T04:09:42.763104Z","epoch_age_seconds":56569,"freshness":"FRESH","line1":"1 28058U 03049B   26145.17341161  .00000173  00000+0  57998-4 0  9993","line2":"2 28058  98.5104  44.0729 0011292 251.4599 108.5367 14.48571544192946","mean_motion":14.48571544,"eccentricity":0.0011292,"inclination_deg":98.5104,"raan_deg":44.0729,"arg_perigee_deg":251.4599,"mean_anomaly_deg":108.5367,"bstar":5.7998e-5,"rev_number":19294,"period_min":99.408276102378,"perigee_km":722.29096578712,"apogee_km":738.34470018193,"semimajor_km":7108.4548329845,"source":"CELESTRAK","updated_at":"2026-05-25T13:37:55.056050Z"}}}